Location: Tierra Monte Subdivision
(35.2092°N, 106.4864°W)
Time: 19:27:07
(UTC+00:00)

Resurs 01 Rocket - Pass Details

Date: 30 March 2020
Orbit: 635 x 644 km, 98.0° (Epoch: 01 June)

Event Time Altitude Azimuth Distance (km) Brightness Sun altitude
Exits shadow 04:00:52 34° 329° (NNW) 1,053 3.1 -30.8°
Drops below altitude 10° 04:03:26 10° 341° (NNW) 2,025 4.7 -31.3°
Sets 04:05:40 0° 345° (NNW) 2,938 5.7 -31.7°
